TimeCST,TemperatureF,Dew PointF,Humidity,Sea Level PressureIn,VisibilityMPH,Wind Direction,Wind SpeedMPH,Gust SpeedMPH,PrecipitationIn,Events,Conditions,WindDirDegrees,DateUTC
12:35 AM,36.0,36.0,100,30.22,1.8,Calm,Calm,-,N/A,,Clear,0,2013-11-03 05:35:00
12:51 AM,37.4,35.6,93,30.22,3.0,Calm,Calm,-,N/A,,Clear,0,2013-11-03 05:51:00
12:53 AM,37.0,36.0,96,30.22,2.5,Calm,Calm,-,N/A,,Clear,0,2013-11-03 05:53:00
1:03 AM,37.0,36.0,96,30.22,0.8,Calm,Calm,-,N/A,,Clear,0,2013-11-03 06:03:00
1:28 AM,36.0,36.0,100,30.22,0.2,Calm,Calm,-,N/A,Fog,Fog,0,2013-11-03 06:28:00
1:39 AM,36.0,35.1,97,30.22,0.8,Calm,Calm,-,N/A,,Mist,0,2013-11-03 06:39:00
1:42 AM,36.0,35.1,97,30.22,1.2,Calm,Calm,-,N/A,,Scattered Clouds,0,2013-11-03 06:42:00
1:53 AM,36.0,35.1,97,30.22,2.0,Calm,Calm,-,N/A,,Partly Cloudy,0,2013-11-03 06:53:00
1:05 AM,36.0,35.1,97,30.22,4.0,Calm,Calm,-,N/A,,Scattered Clouds,0,2013-11-03 07:05:00
1:12 AM,36.0,35.1,97,30.22,2.5,Calm,Calm,-,N/A,,Mostly Cloudy,0,2013-11-03 07:12:00
1:18 AM,36.0,35.1,97,30.22,0.8,Calm,Calm,-,N/A,,Mist,0,2013-11-03 07:18:00
1:53 AM,35.1,34.0,96,30.22,0.8,Calm,Calm,-,N/A,,Mist,0,2013-11-03 07:53:00
2:01 AM,35.1,35.1,100,30.22,1.0,Calm,Calm,-,N/A,,Mist,0,2013-11-03 08:01:00
2:12 AM,35.1,34.0,96,30.22,1.0,Calm,Calm,-,N/A,,Clear,0,2013-11-03 08:12:00
2:19 AM,35.1,34.0,96,30.22,0.8,Calm,Calm,-,N/A,,Clear,0,2013-11-03 08:19:00
2:53 AM,35.1,35.1,100,30.22,0.8,Calm,Calm,-,N/A,,Clear,0,2013-11-03 08:53:00
3:17 AM,35.1,34.0,96,30.23,1.5,Calm,Calm,-,N/A,,Clear,0,2013-11-03 09:17:00
3:33 AM,34.0,34.0,100,30.22,2.5,NE,3.5,-,N/A,,Clear,50,2013-11-03 09:33:00
3:50 AM,33.8,33.8,100,30.22,1.2,Calm,Calm,-,N/A,,Clear,0,2013-11-03 09:50:00
3:53 AM,34.0,34.0,100,30.21,1.0,Calm,Calm,-,N/A,,Clear,0,2013-11-03 09:53:00
4:33 AM,34.0,34.0,100,30.22,3.0,Calm,Calm,-,N/A,,Clear,0,2013-11-03 10:33:00
4:53 AM,34.0,34.0,100,30.22,4.0,Calm,Calm,-,N/A,,Clear,0,2013-11-03 10:53:00
5:12 AM,34.0,34.0,100,30.23,1.8,Calm,Calm,-,N/A,,Clear,0,2013-11-03 11:12:00
5:53 AM,34.0,34.0,100,30.25,2.0,Calm,Calm,-,N/A,,Clear,0,2013-11-03 11:53:00
6:00 AM,34.0,34.0,100,30.24,6.0,Calm,Calm,-,N/A,,Clear,0,2013-11-03 12:00:00
6:08 AM,33.1,33.1,100,30.24,1.8,Calm,Calm,-,N/A,,Clear,0,2013-11-03 12:08:00
6:11 AM,33.1,33.1,100,30.24,0.8,Calm,Calm,-,N/A,,Mist,0,2013-11-03 12:11:00
6:43 AM,33.1,33.1,100,30.24,2.0,Calm,Calm,-,N/A,,Clear,0,2013-11-03 12:43:00
6:53 AM,34.0,33.1,96,30.24,3.0,Calm,Calm,-,N/A,,Clear,0,2013-11-03 12:53:00
7:53 AM,42.1,39.9,92,30.26,9.0,Calm,Calm,-,N/A,,Clear,0,2013-11-03 13:53:00
8:53 AM,50.0,42.1,74,30.27,10.0,ESE,5.8,-,N/A,,Clear,120,2013-11-03 14:53:00
9:53 AM,55.9,42.1,60,30.25,10.0,SE,5.8,-,N/A,,Clear,130,2013-11-03 15:53:00
10:53 AM,59.0,39.9,49,30.23,10.0,SSE,12.7,19.6,N/A,,Clear,150,2013-11-03 16:53:00
11:53 AM,61.0,39.9,46,30.19,10.0,Variable,6.9,-,N/A,,Clear,0,2013-11-03 17:53:00
12:53 PM,63.0,39.9,43,30.13,10.0,Variable,5.8,-,N/A,,Clear,0,2013-11-03 18:53:00
1:53 PM,64.0,41.0,43,30.13,10.0,SE,11.5,17.3,N/A,,Clear,130,2013-11-03 19:53:00
2:53 PM,63.0,41.0,45,30.11,10.0,SE,10.4,-,N/A,,Clear,140,2013-11-03 20:53:00
3:53 PM,62.1,41.0,46,30.09,10.0,SE,8.1,-,N/A,,Clear,130,2013-11-03 21:53:00
4:53 PM,59.0,41.0,51,30.10,10.0,SE,5.8,-,N/A,,Clear,140,2013-11-03 22:53:00
5:53 PM,54.0,42.1,64,30.11,10.0,Calm,Calm,-,N/A,,Clear,0,2013-11-03 23:53:00
6:53 PM,53.1,43.0,69,30.10,10.0,ESE,5.8,-,N/A,,Clear,120,2013-11-04 00:53:00
7:53 PM,54.0,43.0,66,30.11,10.0,ESE,5.8,-,N/A,,Clear,120,2013-11-04 01:53:00
8:53 PM,54.0,44.1,69,30.12,10.0,ESE,5.8,-,N/A,,Clear,120,2013-11-04 02:53:00
9:53 PM,51.1,44.1,77,30.13,10.0,Calm,Calm,-,N/A,,Clear,0,2013-11-04 03:53:00
10:53 PM,52.0,44.1,74,30.11,10.0,ESE,6.9,-,N/A,,Clear,110,2013-11-04 04:53:00